EW7771 Weather Reports


Display with metric or nautical units.
time (UTC)temp
F
wind
direction
speed
MPH
gust
MPH
rain 1hr
in
rain 24hr
in
rain mn
in
humidity
%
barometer
mb
20260508005948 62 265 0.0 0.0 0.00 0.04 0.03 67 1016.0
20260508005225 62 265 0.0 0.0 0.00 0.04 0.03 66 1016.1
20260508004717 62 252 0.0 0.0 0.00 0.04 0.03 67 1016.1
20260508004210 62 248 0.0 0.0 0.00 0.04 0.03 65 1016.1
20260508004142 62 248 0.0 0.0 0.00 0.04 0.03 65 1016.2
20260508003200 62 248 0.0 0.0 0.00 0.04 0.03 64 1016.3
20260508002652 62 327 0.0 0.0 0.00 0.04 0.03 66 1016.2
20260508002146 63 285 0.0 0.0 0.00 0.04 0.03 66 1016.2
20260508001640 62 285 0.0 0.0 0.00 0.04 0.03 65 1016.2
20260508001136 62 285 0.0 0.0 0.00 0.04 0.03 63 1016.2
20260508000624 63 265 0.0 0.0 0.00 0.04 0.03 65 1016.2
20260508000123 63 89 0.0 0.0 0.00 0.04 0.03 66 1016.1
20260507235616 63 45 0.0 0.0 0.00 0.04 0.03 64 1016.2
20260507235115 63 330 0.0 0.0 0.00 0.04 0.03 64 1016.2
20260507234609 63 335 0.0 0.0 0.00 0.04 0.03 66 1016.2
20260507234108 63 295 0.0 0.0 0.00 0.04 0.03 64 1016.1
20260507233607 63 294 0.0 0.0 0.00 0.04 0.03 64 1016.2
20260507233107 63 294 0.0 1.0 0.00 0.04 0.03 66 1016.3
20260507232612 63 292 0.0 1.0 0.00 0.04 0.03 63 1016.4
20260507232556 63 301 0.0 0.0 0.00 0.04 0.03 63 1016.4
20260507231608 63 312 0.0 0.0 0.00 0.04 0.03 64 1016.3
20260507231107 64 318 0.0 4.0 0.00 0.04 0.03 65 1016.5
20260507230606 64 15 0.0 4.0 0.00 0.04 0.03 63 1016.5
20260507230332 64 36 0.0 1.0 0.00 0.04 0.03 65 1016.5
20260507225604 64 311 0.0 0.0 0.00 0.04 0.03 65 1016.6
20260507225103 64 159 0.0 0.0 0.00 0.04 0.03 65 1016.6
20260507224605 64 333 0.0 0.0 0.00 0.04 0.03 62 1016.6
20260507224103 64 171 0.0 0.0 0.00 0.04 0.03 63 1016.7
20260507223603 64 338 0.0 1.0 0.00 0.04 0.03 63 1016.7
20260507223103 64 348 0.0 1.0 0.00 0.04 0.03 64 1016.6
20260507222605 64 207 0.0 0.0 0.00 0.04 0.03 64 1016.6
20260507222104 64 178 0.0 0.0 0.00 0.04 0.03 63 1016.6
20260507221605 64 330 0.0 2.0 0.00 0.04 0.03 68 1016.7
20260507221102 63 270 0.0 4.0 0.00 0.04 0.03 67 1016.8
20260507220602 62 355 0.0 4.0 0.00 0.04 0.03 66 1016.9
20260507220105 62 149 0.0 0.0 0.00 0.04 0.03 70 1017.0
20260507215602 62 117 0.0 0.0 0.00 0.04 0.03 66 1017.0
20260507215100 62 198 0.0 1.0 0.00 0.04 0.03 70 1017.0
20260507214604 61 159 0.0 1.0 0.00 0.04 0.03 71 1017.0
20260507214321 61 144 0.0 0.0 0.00 0.04 0.03 69 1017.1
20260507213554 61 155 0.0 0.0 0.00 0.04 0.03 72 1017.2
20260507213055 61 340 0.0 0.0 0.00 0.04 0.03 69 1017.3
20260507212823 61 34 0.0 0.0 0.00 0.04 0.03 73 1017.3
20260507212053 61 39 0.0 0.0 0.00 0.04 0.03 74 1017.3
20260507211552 60 55 0.0 0.0 0.00 0.04 0.03 72 1017.3
20260507211054 60 74 0.0 0.0 0.00 0.04 0.03 70 1017.4
20260507210551 59 294 0.0 0.0 0.00 0.04 0.03 74 1017.5
20260507210051 58 294 0.0 0.0 0.00 0.04 0.03 74 1017.6
20260507205818 58 11 0.0 1.0 0.00 0.04 0.03 74 1017.7
20260507205101 58 306 0.0 1.0 0.00 0.04 0.03 75 1017.8
20260507204554 57 102 0.0 0.0 0.00 0.04 0.03 74 1017.8
20260507204047 57 304 0.0 1.0 0.00 0.04 0.03 76 1017.9
20260507203538 57 197 0.0 1.0 0.00 0.04 0.03 77 1018.0
20260507203035 57 229 0.0 1.0 0.00 0.04 0.03 75 1018.1
20260507202529 57 53 0.0 5.0 0.00 0.04 0.03 76 1018.3
20260507202024 57 84 0.0 5.0 0.00 0.04 0.03 75 1018.1
20260507201519 56 111 0.0 0.0 0.00 0.04 0.03 80 1018.3
20260507201008 56 290 0.0 0.0 0.00 0.04 0.03 81 1018.3
20260507200504 55 164 0.0 1.0 0.00 0.04 0.03 81 1018.4
20260507195955 55 185 0.0 1.0 0.00 0.04 0.03 81 1018.4
20260507195720 55 126 0.0 0.0 0.00 0.04 0.03 80 1018.5
20260507194949 54 134 0.0 0.0 0.00 0.04 0.03 83 1018.5
20260507194442 54 49 0.0 0.0 0.00 0.04 0.03 83 1018.6
20260507193935 54 82 0.0 0.0 0.00 0.04 0.03 82 1018.6
20260507193432 54 292 0.0 0.0 0.00 0.04 0.03 83 1018.6
20260507192923 53 164 0.0 0.0 0.00 0.04 0.03 85 1018.7
20260507192418 53 148 0.0 0.0 0.00 0.04 0.03 84 1018.7
20260507191912 53 120 0.0 1.0 0.00 0.04 0.03 86 1018.8
20260507191406 53 155 0.0 1.0 0.00 0.04 0.03 86 1018.7
20260507190856 52 192 0.0 0.0 0.00 0.04 0.03 85 1018.7
20260507190354 52 176 0.0 0.0 0.00 0.04 0.03 86 1018.9
20260507185847 52 138 0.0 0.0 0.00 0.04 0.03 85 1018.9
20260507185341 52 148 0.0 0.0 0.00 0.04 0.03 87 1018.9
20260507184837 52 219 0.0 0.0 0.00 0.04 0.03 86 1018.9
20260507184548 52 195 0.0 0.0 0.00 0.04 0.03 87 1019.0
20260507183823 52 166 0.0 0.0 0.00 0.04 0.03 87 1019.0
20260507183317 52 148 0.0 0.0 0.00 0.04 0.03 88 1019.0
20260507182813 51 185 0.0 5.0 0.00 0.04 0.03 87 1019.0
20260507182306 51 159 0.0 5.0 0.00 0.04 0.03 87 1019.0
20260507181759 51 144 0.0 4.0 0.00 0.04 0.03 87 1019.0
20260507181253 51 197 0.0 2.0 0.00 0.04 0.03 87 1019.0
20260507180748 51 205 0.0 2.0 0.00 0.04 0.03 87 1019.0
20260507180243 51 209 0.0 1.0 0.00 0.04 0.03 88 1018.9
20260507175732 51 209 0.0 1.0 0.00 0.04 0.03 88 1019.0
20260507175229 51 143 0.0 4.0 0.00 0.04 0.03 87 1019.0
20260507174722 51 138 0.0 5.0 0.00 0.04 0.03 88 1019.1
20260507174219 51 105 0.0 6.0 0.00 0.04 0.03 87 1019.2
20260507173708 51 130 0.0 6.0 0.00 0.04 0.03 86 1019.2
20260507173205 51 196 0.0 3.0 0.00 0.04 0.03 87 1019.1
20260507172659 51 196 0.0 2.0 0.00 0.04 0.03 87 1019.1
20260507172151 51 135 0.0 0.0 0.00 0.04 0.03 88 1019.1
20260507171649 51 127 0.0 0.0 0.00 0.04 0.03 86 1019.0
20260507171143 51 159 0.0 0.0 0.00 0.04 0.03 87 1019.0
20260507170643 51 147 0.0 2.0 0.00 0.04 0.03 87 1019.0
20260507170142 51 204 0.0 2.0 0.00 0.04 0.03 87 1018.9
20260507165643 51 221 0.0 2.0 0.00 0.04 0.03 87 1018.9
20260507165633 50 146 0.0 7.0 0.00 0.04 0.03 86 1018.9
20260507164643 50 190 0.0 7.0 0.00 0.04 0.03 87 1018.8
20260507164635 50 154 0.0 3.0 0.00 0.04 0.03 87 1018.9
20260507163643 50 196 0.0 3.0 0.00 0.04 0.03 87 1018.9
20260507163140 50 219 0.0 10.0 0.00 0.04 0.03 87 1018.9
20260507162643 50 132 0.0 10.0 0.00 0.04 0.03 87 1018.9
20260507162141 50 166 0.0 0.0 0.00 0.04 0.03 87 1019.0
20260507161639 50 138 0.0 2.0 0.00 0.04 0.03 87 1018.9
20260507161625 50 217 0.0 2.0 0.00 0.04 0.03 87 1018.9
20260507160637 50 202 0.0 0.0 0.00 0.04 0.03 87 1018.9
20260507160359 50 233 0.0 2.0 0.00 0.04 0.03 87 1018.9
20260507155634 50 127 0.0 2.0 0.00 0.04 0.03 87 1018.9
20260507155357 50 126 0.0 1.0 0.00 0.04 0.03 87 1018.9
20260507154634 50 174 0.0 2.0 0.00 0.04 0.03 87 1018.9
20260507154138 49 141 0.0 2.0 0.00 0.04 0.03 87 1018.9
20260507154119 49 245 0.0 6.0 0.00 0.04 0.03 87 1018.9
20260507153141 49 188 0.0 6.0 0.00 0.04 0.03 87 1018.9
20260507152903 49 232 0.0 1.0 0.00 0.04 0.03 88 1018.9
20260507152136 49 134 0.0 0.0 0.00 0.04 0.03 87 1018.9
20260507151641 49 196 0.0 0.0 0.00 0.04 0.03 87 1019.0
20260507151408 49 194 0.0 0.0 0.00 0.04 0.03 87 1019.0
20260507150638 49 175 0.0 0.0 0.00 0.04 0.03 87 1019.0
20260507150136 49 150 0.0 0.0 0.00 0.04 0.03 87 1018.9
20260507145632 49 197 0.0 0.0 0.00 0.04 0.03 88 1019.0
20260507145131 49 219 0.0 0.0 0.00 0.04 0.03 88 1019.0
20260507144631 49 118 0.0 0.0 0.00 0.04 0.03 88 1019.0
20260507144127 49 102 0.0 0.0 0.00 0.04 0.03 87 1019.0
20260507143629 49 140 0.0 0.0 0.00 0.04 0.03 88 1019.0
20260507143126 49 130 0.0 0.0 0.00 0.04 0.03 88 1019.0
20260507142625 49 130 0.0 0.0 0.00 0.04 0.03 89 1019.1
20260507142125 49 219 0.0 0.0 0.00 0.04 0.03 90 1019.1
20260507141629 49 219 0.0 0.0 0.00 0.04 0.03 88 1019.1
20260507141347 49 355 0.0 0.0 0.00 0.04 0.03 89 1019.0
20260507140619 49 193 0.0 0.0 0.00 0.04 0.03 90 1019.0
20260507140111 49 193 0.0 0.0 0.00 0.04 0.03 90 1019.0
20260507135813 49 143 0.0 0.0 0.00 0.04 0.03 91 1018.9
20260507135653 49 193 0.0 0.0 0.00 0.04 0.03 90 1018.9
20260507135155 49 207 0.0 0.0 0.00 0.04 0.03 90 1018.9
20260507134047 49 136 0.0 0.0 0.00 0.04 0.03 91 1018.8
20260507133541 49 177 0.0 0.0 0.00 0.04 0.03 91 1018.7
20260507133036 49 134 0.0 0.0 0.00 0.04 0.03 91 1018.7
20260507132531 49 159 0.0 0.0 0.00 0.04 0.03 91 1018.7
20260507132023 49 103 0.0 0.0 0.00 0.04 0.03 92 1018.8
20260507131517 49 104 0.0 0.0 0.00 0.04 0.03 93 1018.8
20260507131010 49 104 0.0 0.0 0.00 0.04 0.03 92 1018.8
20260507130507 49 103 0.0 0.0 0.00 0.04 0.03 92 1018.8
20260507125959 49 140 0.0 0.0 0.00 0.04 0.03 92 1018.7
20260507125723 49 96 0.0 0.0 0.00 0.04 0.03 93 1018.7
20260507124948 49 351 0.0 0.0 0.00 0.04 0.03 93 1018.8
20260507124712 49 351 0.0 0.0 0.00 0.04 0.03 92 1018.8
20260507123935 49 216 0.0 0.0 0.00 0.04 0.03 92 1018.8
20260507123429 49 175 0.0 0.0 0.00 0.04 0.03 93 1018.9
20260507123151 49 175 0.0 0.0 0.00 0.04 0.03 93 1018.9
20260507122420 49 173 0.0 0.0 0.00 0.04 0.03 93 1018.9
20260507121911 49 173 0.0 0.0 0.00 0.04 0.03 93 1018.9
20260507121405 49 173 0.0 0.0 0.00 0.04 0.03 93 1019.0
20260507121130 49 173 0.0 0.0 0.00 0.04 0.03 93 1019.1
20260507120356 49 173 0.0 0.0 0.00 0.04 0.03 93 1019.1
20260507115847 49 176 0.0 0.0 0.00 0.04 0.03 93 1019.2
20260507115341 49 176 0.0 0.0 0.00 0.04 0.03 93 1019.2
20260507114835 49 176 0.0 1.0 0.00 0.04 0.03 93 1019.3
20260507114332 49 176 0.0 1.0 0.00 0.04 0.03 92 1019.3
20260507113823 49 246 0.0 0.0 0.00 0.04 0.03 92 1019.4
20260507113317 49 144 0.0 0.0 0.00 0.04 0.03 92 1019.4
20260507113044 49 139 0.0 0.0 0.00 0.04 0.03 93 1019.4
20260507112801 49 178 0.0 0.0 0.01 0.04 0.03 92 1019.5
20260507111759 49 136 0.0 0.0 0.01 0.04 0.03 93 1019.5
20260507111253 49 229 0.0 0.0 0.01 0.04 0.03 92 1019.5
20260507110746 49 178 0.0 0.0 0.01 0.04 0.03 93 1019.5
20260507110243 49 224 0.0 1.0 0.01 0.04 0.03 93 1019.4
20260507105736 49 242 0.0 1.0 0.01 0.04 0.03 93 1019.4
20260507105452 49 229 0.0 0.0 0.02 0.04 0.03 93 1019.5
20260507104728 49 205 0.0 0.0 0.02 0.04 0.03 93 1019.5
20260507104226 49 205 0.0 0.0 0.02 0.04 0.03 93 1019.5
20260507103952 49 205 0.0 0.0 0.02 0.04 0.03 93 1019.6
20260507103230 49 154 0.0 0.0 0.02 0.04 0.03 93 1019.6
20260507102726 50 147 0.0 0.0 0.02 0.04 0.03 93 1019.6
20260507102227 50 75 0.0 0.0 0.01 0.03 0.02 93 1019.5
20260507102217 50 144 0.0 2.0 0.01 0.03 0.02 93 1019.5
20260507101225 50 215 0.0 2.0 0.01 0.03 0.02 93 1019.4
20260507100728 50 115 0.0 2.0 0.01 0.03 0.02 94 1019.5
20260507100224 50 148 0.0 2.0 0.01 0.03 0.02 94 1019.5
20260507095956 50 196 0.0 1.0 0.01 0.03 0.02 93 1019.5
20260507095220 50 197 0.0 1.0 0.00 0.02 0.01 93 1019.5
20260507094722 50 348 0.0 1.0 0.00 0.02 0.01 94 1019.5
20260507094447 51 146 0.0 0.0 0.00 0.02 0.01 94 1019.5
20260507093719 51 228 0.0 0.0 0.00 0.02 0.01 93 1019.5
20260507093219 51 215 0.0 0.0 0.00 0.02 0.01 94 1019.4
20260507092721 51 149 0.0 0.0 0.00 0.02 0.01 94 1019.5
20260507092440 51 196 0.0 0.0 0.00 0.02 0.01 94 1019.4
20260507091930 51 196 0.0 1.0 0.00 0.02 0.01 94 1019.5
20260507091207 51 196 0.0 1.0 0.00 0.02 0.01 94 1019.5
20260507090705 51 188 0.0 0.0 0.00 0.02 0.01 94 1019.5
20260507090204 51 205 0.0 0.0 0.00 0.02 0.01 94 1019.4
20260507085705 51 115 0.0 0.0 0.00 0.02 0.01 94 1019.5
20260507085206 51 115 0.0 0.0 0.00 0.02 0.01 94 1019.4
20260507084705 51 115 0.0 0.0 0.00 0.02 0.01 94 1019.4
20260507084205 51 115 0.0 0.0 0.00 0.02 0.01 94 1019.5
20260507083706 51 115 0.0 0.0 0.00 0.02 0.01 94 1019.5
20260507083206 51 140 0.0 0.0 0.00 0.02 0.01 94 1019.4
20260507082705 51 109 0.0 0.0 0.00 0.02 0.01 95 1019.4
20260507082207 51 109 0.0 0.0 0.00 0.02 0.01 95 1019.4
20260507081705 51 155 0.0 0.0 0.00 0.02 0.01 95 1019.4
20260507081206 51 155 0.0 0.0 0.01 0.02 0.01 95 1019.4
20260507080705 51 155 0.0 0.0 0.01 0.02 0.01 95 1019.3
20260507080208 51 155 0.0 0.0 0.01 0.02 0.01 95 1019.3
20260507075704 51 155 0.0 0.0 0.01 0.02 0.01 95 1019.4
20260507075424 51 155 0.0 0.0 0.01 0.02 0.01 94 1019.4
20260507074704 51 155 0.0 0.0 0.01 0.02 0.01 94 1019.4
20260507074208 51 155 0.0 0.0 0.01 0.02 0.01 94 1019.4
20260507073700 51 155 0.0 0.0 0.01 0.02 0.01 94 1019.3
20260507073154 51 155 0.0 0.0 0.01 0.02 0.01 94 1019.3
20260507072650 51 155 0.0 0.0 0.01 0.02 0.01 94 1019.3
20260507072147 51 155 0.0 0.0 0.01 0.02 0.01 94 1019.3
20260507071855 52 155 0.0 0.0 0.01 0.02 0.01 94 1019.4
20260507071132 52 155 0.0 0.0 0.00 0.01 0.00 94 1019.4
20260507070625 52 155 0.0 0.0 0.00 0.01 0.00 94 1019.3
20260507070122 52 155 0.0 0.0 0.00 0.01 0.00 94 1019.4
20260507065615 52 155 0.0 0.0 0.00 0.01 0.01 94 1019.3
20260507065107 52 155 0.0 0.0 0.00 0.01 0.01 94 1019.3
20260507064601 52 155 0.0 0.0 0.00 0.01 0.01 94 1019.2
20260507064058 52 155 0.0 0.0 0.00 0.01 0.01 94 1019.2
20260507063550 52 155 0.0 0.0 0.00 0.01 0.01 94 1019.3
20260507063310 52 155 0.0 0.0 0.00 0.01 0.01 94 1019.4
20260507062538 52 155 0.0 0.0 0.00 0.01 0.01 94 1019.4
20260507062034 52 155 0.0 0.0 0.00 0.01 0.01 94 1019.4
20260507061527 52 155 0.0 0.0 0.00 0.01 0.01 94 1019.5
20260507061020 52 155 0.0 0.0 0.00 0.01 0.01 94 1019.5
20260507060514 52 155 0.0 0.0 0.00 0.01 0.01 94 1019.5
20260507060011 52 155 0.0 0.0 0.00 0.01 0.01 94 1019.6
20260507055502 52 155 0.0 0.0 0.00 0.01 0.01 93 1019.6
20260507054956 52 155 0.0 0.0 0.00 0.01 0.01 93 1019.6
20260507054450 52 155 0.0 0.0 0.00 0.01 0.01 93 1019.6
20260507054216 52 155 0.0 0.0 0.00 0.01 0.01 93 1019.6
20260507053444 52 155 0.0 0.0 0.00 0.01 0.01 93 1019.6
20260507052944 52 155 0.0 0.0 0.00 0.01 0.01 93 1019.6
20260507052718 52 155 0.0 0.0 0.00 0.01 0.01 93 1019.5
20260507051944 52 155 0.0 0.0 0.00 0.01 0.01 93 1019.6
20260507051442 52 155 0.0 0.0 0.00 0.01 0.01 93 1019.5
20260507050939 53 155 0.0 0.0 0.00 0.01 0.01 93 1019.6
20260507050438 53 155 0.0 0.0 0.00 0.01 0.01 93 1019.6
20260507050158 53 155 0.0 0.0 0.00 0.01 0.01 93 1019.6
20260507045436 53 155 0.0 0.0 0.00 0.01 0.01 93 1019.6
20260507044936 53 155 0.0 0.0 0.00 0.01 0.01 93 1019.6
20260507044438 53 155 0.0 0.0 0.00 0.01 0.01 93 1019.6
20260507043936 53 155 0.0 0.0 0.00 0.01 0.01 93 1019.6
20260507043432 53 155 0.0 0.0 0.00 0.01 0.01 93 1019.5
20260507042933 53 155 0.0 0.0 0.00 0.01 0.01 93 1019.6
20260507042431 53 155 0.0 0.0 0.00 0.01 0.01 93 1019.6
20260507041929 53 155 0.0 0.0 0.00 0.01 0.01 93 1019.6
20260507041433 53 155 0.0 0.0 0.00 0.01 0.01 93 1019.6
20260507040931 53 155 0.0 0.0 0.00 0.01 0.01 93 1019.6
20260507040427 53 155 0.0 0.0 0.00 0.01 0.01 93 1019.5
20260507035922 53 155 0.0 0.0 0.00 0.01 0.01 93 1019.5
20260507035417 53 155 0.0 0.0 0.00 0.01 0.01 93 1019.5
20260507034913 53 155 0.0 0.0 0.00 0.01 0.01 93 1019.4
20260507034412 53 155 0.0 0.0 0.00 0.01 0.01 93 1019.3
20260507033914 53 155 0.0 0.0 0.00 0.01 0.01 93 1019.3
20260507033412 53 155 0.0 0.0 0.00 0.01 0.01 93 1019.2
20260507032911 54 155 0.0 0.0 0.00 0.01 0.01 93 1019.2
20260507032412 54 155 0.0 0.0 0.00 0.01 0.01 93 1019.2
20260507031915 54 155 0.0 0.0 0.00 0.01 0.01 93 1019.2
20260507031411 54 155 0.0 0.0 0.00 0.01 0.01 93 1019.2
20260507030914 54 155 0.0 0.0 0.00 0.01 0.01 93 1019.1
20260507030412 54 155 0.0 0.0 0.00 0.01 0.01 93 1019.1
20260507025915 54 155 0.0 0.0 0.00 0.01 0.01 93 1019.1
20260507025412 54 155 0.0 0.0 0.00 0.01 0.01 93 1019.0
20260507024913 54 155 0.0 0.0 0.00 0.01 0.01 93 1019.0
20260507024413 54 155 0.0 0.0 0.00 0.01 0.01 93 1019.0
20260507023913 54 155 0.0 0.0 0.00 0.01 0.01 92 1019.0
20260507023412 54 155 0.0 0.0 0.00 0.01 0.01 92 1019.0
20260507022912 54 155 0.0 0.0 0.00 0.01 0.01 92 1018.9
20260507022418 54 155 0.0 0.0 0.00 0.01 0.01 92 1018.9
20260507021910 54 155 0.0 0.0 0.01 0.01 0.01 92 1018.9
20260507021402 54 155 0.0 0.0 0.01 0.01 0.01 92 1019.0
20260507020900 54 155 0.0 0.0 0.01 0.01 0.01 92 1019.0
20260507020402 54 155 0.0 0.0 0.01 0.01 0.01 92 1019.0
20260507015900 54 155 0.0 0.0 0.01 0.01 0.01 92 1019.0
20260507015404 54 155 0.0 0.0 0.01 0.01 0.01 92 1019.0
20260507014901 54 155 0.0 0.0 0.01 0.01 0.01 92 1019.0
20260507014359 54 155 0.0 0.0 0.01 0.01 0.01 91 1018.9
20260507014114 54 155 0.0 0.0 0.01 0.01 0.01 91 1019.0
20260507013607 54 155 0.0 0.0 0.01 0.01 0.01 91 1018.9
20260507013449 54 155 0.0 0.0 0.01 0.01 0.01 91 1019.0
20260507012354 54 155 0.0 0.0 0.01 0.01 0.01 91 1019.0
20260507011857 54 155 0.0 0.0 0.00 0.00 0.00 92 1019.0
20260507011355 54 155 0.0 0.0 0.00 0.00 0.00 92 1019.0
20260507011332 54 155 0.0 0.0 0.00 0.00 0.00 92 1019.0
20260507010352 54 155 0.0 0.0 0.00 0.00 0.00 91 1019.2
20260507010125 55 155 0.0 0.0 0.00 0.00 0.00 91 1019.2